Onalaska, WI

8:56 AM CDT on August 27, 2016 (GMT -0500)
La Crosse Municipal

Weather History for KLSE - May, 2013

Change the Weather History Date:

Sunday, May 26, 2013

  Actual Average Record
Temperature  
Mean Temperature 55 °F 63 °F  
Max Temperature 57 °F 74 °F 94 °F (1967)
Min Temperature 52 °F 52 °F 34 °F (1925)
Degree Days  
Heating Degree Days 10 4  
Month to date heating degree days 217 185  
Since 1 July heating degree days 7411 7137  
Cooling Degree Days 0 2  
Month to date cooling degree days 36 30  
Year to date cooling degree days 40 37  
Growing Degree Days 4 (Base 50)    
Moisture  
Dew Point 44 °F    
Average Humidity 65    
Maximum Humidity 83    
Minimum Humidity 47    
Precipitation  
Precipitation 0.12 in 0.12 in 1.68 in (1935)
Month to date precipitation 5.19 2.92  
Year to date precipitation 15.63 10.47  
Snow  
Snow 0.00 in 0.00 in 0.00 in (2002)
Month to date snowfall 0.8 0.1  
Since 1 July snowfall 60.6 43.4  
Snow Depth 0.00 in    
Sea Level Pressure  
Sea Level Pressure 30.21 in    
Wind  
Wind Speed 6 mph (SE)    
Max Wind Speed 14 mph    
Max Gust Speed 18 mph    
Visibility 10 miles    
Events Rain    
T = Trace of Precipitation, MM = Missing Value Source: NWS Daily Summary

Daily Weather History Graph

Daily Weather History Graph

Search for Another Location

Airport or City:

Trip Planner

Search our weather history database for the weather conditions in past years. The results will help you decide how hot, cold, wet, or windy it might be!

Date:

Astronomy

May. 26, 2013 Rise Set
Actual Time 5:29 AM CDT 8:35 PM CDT
Civil Twilight 4:54 AM CDT 9:10 PM CDT
Nautical Twilight 4:10 AM CDT 9:54 PM CDT
Astronomical Twilight 3:16 AM CDT 10:48 PM CDT
Moon 10:22 PM CDT (5/26) 6:59 AM CDT (5/26)
Length of Visible Light 16h 15m
Length of Day
15h 06m
Waning Gibbous, 96% of the Moon is Illuminated
May 26
Waning Gibbous
May 31
Last Quarter
Jun 8
New
Jun 16
First Quarter
Jun 23
Full

Hourly Weather History & Observations

Time (CDT) Temp. Dew Point Humidity Pressure Visibility Wind Dir Wind Speed Gust Speed Precip Events Conditions
12:53 AM 55.0 °F 39.9 °F 57% 30.27 in 10.0 mi ESE 5.8 mph - N/A   Overcast
1:53 AM 55.0 °F 41.0 °F 59% 30.25 in 10.0 mi ESE 4.6 mph - N/A   Overcast
2:53 AM 54.0 °F 39.9 °F 59% 30.23 in 10.0 mi South 4.6 mph - N/A   Overcast
3:53 AM 53.1 °F 39.0 °F 59% 30.22 in 10.0 mi SE 6.9 mph - N/A   Mostly Cloudy
4:53 AM 53.1 °F 37.9 °F 57% 30.23 in 10.0 mi South 4.6 mph - N/A   Overcast
5:53 AM 52.0 °F 39.0 °F 61% 30.25 in 10.0 mi Calm Calm - N/A   Mostly Cloudy
6:53 AM 52.0 °F 39.9 °F 63% 30.26 in 10.0 mi SSE 8.1 mph - N/A   Partly Cloudy
7:53 AM 53.1 °F 39.9 °F 61% 30.26 in 10.0 mi Calm Calm - N/A   Mostly Cloudy
8:53 AM 54.0 °F 36.0 °F 51% 30.27 in 10.0 mi SE 6.9 mph - N/A   Overcast
9:53 AM 54.0 °F 37.0 °F 53% 30.25 in 10.0 mi ESE 5.8 mph - N/A   Overcast
10:53 AM 55.9 °F 36.0 °F 47% 30.25 in 10.0 mi ESE 6.9 mph - N/A   Overcast
11:53 AM 55.9 °F 39.0 °F 53% 30.24 in 10.0 mi SE 8.1 mph - 0.00 in Rain Light Rain
12:53 PM 54.0 °F 44.1 °F 69% 30.22 in 8.0 mi ESE 10.4 mph 18.4 mph 0.00 in Rain Light Rain
1:53 PM 53.1 °F 48.0 °F 83% 30.22 in 7.0 mi SE 4.6 mph - 0.10 in Rain Light Rain
2:53 PM 54.0 °F 48.9 °F 83% 30.21 in 10.0 mi SE 6.9 mph - 0.01 in Rain Light Rain
3:53 PM 55.0 °F 50.0 °F 83% 30.22 in 7.0 mi Calm Calm - 0.01 in Rain Light Rain
4:53 PM 55.9 °F 51.1 °F 84% 30.17 in 8.0 mi ESE 6.9 mph - 0.00 in   Overcast
5:53 PM 57.0 °F 51.1 °F 81% 30.14 in 10.0 mi SE 10.4 mph - N/A   Overcast
6:53 PM 57.0 °F 50.0 °F 77% 30.15 in 10.0 mi SE 8.1 mph - N/A   Overcast
7:53 PM 57.0 °F 48.9 °F 74% 30.14 in 10.0 mi East 10.4 mph - N/A   Overcast
8:53 PM 55.9 °F 50.0 °F 80% 30.15 in 10.0 mi East 6.9 mph - N/A   Overcast
9:53 PM 57.0 °F 48.9 °F 74% 30.12 in 10.0 mi ESE 9.2 mph - N/A   Overcast
10:53 PM 57.0 °F 48.0 °F 72% 30.14 in 10.0 mi ESE 5.8 mph - N/A   Overcast
11:53 PM 57.0 °F 48.0 °F 72% 30.11 in 10.0 mi ESE 6.9 mph - N/A   Overcast